When you browse on this site, cookies collect data to enhance your experience and personalize the content and advertising you see.
Visit our Privacy Policy to learn more. By continuing to use the site, you agree to this use of cookies and data.
  • Em Portugal
  • Lista de países
  • Para 7 dias
  • Temperatura da água
  • Mapa do tempo
  • Widgets de tempo
  • user-avatar
    Iniciar Sessão

    Previsão horária em Albena

    Hoje, 1 Abril, Quarta-feira

    Tempo Temperatura Precipitação Vento Pressão Humidade
    00:00 0°C° 0 mm 5 m/s 749 mmHg 52%
    01:00 0°C° 0 mm 5 m/s 749 mmHg 51%
    02:00 -1°C° 0 mm 6 m/s 749 mmHg 49%
    03:00 -2°C° 0 mm 6 m/s 749 mmHg 53%
    04:00 -2°C° 0 mm 6 m/s 749 mmHg 57%
    05:00 -2°C° 0 mm 7 m/s 749 mmHg 61%
    06:00 -2°C° 0 mm 7 m/s 749 mmHg 61%
    07:00 -1°C° 0 mm 6 m/s 749 mmHg 60%
    08:00 0°C° 0 mm 7 m/s 750 mmHg 61%
    09:00 0°C° 0.1 mm 7 m/s 750 mmHg 66%
    10:00 0°C° 0.1 mm 7 m/s 750 mmHg 72%
    11:00 +2°C° 0.1 mm 7 m/s 750 mmHg 77%
    12:00 +2°C° 0.1 mm 7 m/s 750 mmHg 73%
    13:00 +3°C° 0.1 mm 7 m/s 749 mmHg 70%
    14:00 +3°C° 0.1 mm 7 m/s 749 mmHg 66%
    15:00 +3°C° 0 mm 7 m/s 749 mmHg 66%
    16:00 +3°C° 0 mm 7 m/s 749 mmHg 66%
    17:00 +2°C° 0 mm 6 m/s 748 mmHg 66%
    18:00 +2°C° 0 mm 6 m/s 748 mmHg 69%
    19:00 +1°C° 0 mm 6 m/s 748 mmHg 71%
    20:00 0°C° 0 mm 5 m/s 748 mmHg 73%
    21:00 0°C° 0 mm 5 m/s 748 mmHg 73%
    22:00 0°C° 0 mm 5 m/s 748 mmHg 73%
    23:00 0°C° 0 mm 4 m/s 748 mmHg 73%

    Amanhã, 2 Abril, Quinta-feira

    Tempo Temperatura Precipitação Vento Pressão Humidade
    00:00 0°C° 0 mm 4 m/s 748 mmHg 74%
    01:00 0°C° 0 mm 4 m/s 748 mmHg 74%
    02:00 0°C° 0 mm 4 m/s 748 mmHg 75%
    03:00 -1°C° 0 mm 4 m/s 747 mmHg 75%
    04:00 -1°C° 0 mm 4 m/s 747 mmHg 76%
    05:00 -1°C° 0 mm 4 m/s 747 mmHg 76%
    06:00 0°C° 0 mm 4 m/s 747 mmHg 72%
    07:00 +2°C° 0 mm 5 m/s 747 mmHg 68%
    08:00 +3°C° 0 mm 5 m/s 747 mmHg 64%
    09:00 +5°C° 0 mm 5 m/s 747 mmHg 66%
    10:00 +4°C° 0 mm 6 m/s 747 mmHg 67%
    11:00 +5°C° 0 mm 6 m/s 747 mmHg 69%
    12:00 +5°C° 0 mm 6 m/s 747 mmHg 65%
    13:00 +7°C° 0 mm 6 m/s 746 mmHg 60%
    14:00 +7°C° 0 mm 6 m/s 746 mmHg 56%
    15:00 +7°C° 0 mm 6 m/s 746 mmHg 55%
    16:00 +5°C° 0 mm 6 m/s 745 mmHg 55%
    17:00 +5°C° 0 mm 6 m/s 745 mmHg 54%
    18:00 +5°C° 0 mm 5 m/s 745 mmHg 59%
    19:00 +2°C° 0 mm 5 m/s 745 mmHg 64%
    20:00 +1°C° 0 mm 4 m/s 745 mmHg 70%
    21:00 +2°C° 0 mm 3 m/s 745 mmHg 73%
    22:00 +1°C° 0 mm 3 m/s 745 mmHg 77%
    23:00 +2°C° 0 mm 2 m/s 746 mmHg 80%

    Depois de amanhã, 3 Abril, Sexta-feira

    Tempo Temperatura Precipitação Vento Pressão Humidade
    00:00 +1°C° 0 mm 2 m/s 745 mmHg 81%
    01:00 +1°C° 0 mm 2 m/s 745 mmHg 82%
    02:00 +1°C° 0 mm 2 m/s 745 mmHg 83%
    03:00 +1°C° 0 mm 2 m/s 745 mmHg 83%
    04:00 -1°C° 0 mm 2 m/s 745 mmHg 82%
    05:00 -1°C° 0 mm 2 m/s 745 mmHg 81%
    06:00 +3°C° 0 mm 1 m/s 745 mmHg 73%
    07:00 +4°C° 0 mm 1 m/s 746 mmHg 65%
    08:00 +6°C° 0 mm 1 m/s 746 mmHg 57%
    09:00 +7°C° 0 mm 1 m/s 746 mmHg 52%
    10:00 +9°C° 0 mm 1 m/s 746 mmHg 47%
    11:00 +9°C° 0 mm 2 m/s 746 mmHg 42%
    12:00 +10°C° 0 mm 2 m/s 746 mmHg 43%
    13:00 +11°C° 0 mm 3 m/s 746 mmHg 43%
    14:00 +11°C° 0 mm 3 m/s 746 mmHg 44%
    15:00 +11°C° 0 mm 4 m/s 745 mmHg 49%
    16:00 +10°C° 0 mm 4 m/s 745 mmHg 54%
    17:00 +8°C° 0 mm 4 m/s 745 mmHg 60%
    18:00 +7°C° 0 mm 4 m/s 745 mmHg 68%
    19:00 +5°C° 0 mm 3 m/s 746 mmHg 76%
    20:00 +4°C° 0 mm 3 m/s 746 mmHg 84%
    21:00 +4°C° 0 mm 3 m/s 746 mmHg 86%
    22:00 +4°C° 0 mm 3 m/s 746 mmHg 87%
    23:00 +4°C° 0 mm 3 m/s 747 mmHg 89%

    4 Abril, Sábado

    Tempo Temperatura Precipitação Vento Pressão Humidade
    00:00 +4°C° 0 mm 2 m/s 747 mmHg 90%
    01:00 +4°C° 0 mm 2 m/s 747 mmHg 90%
    02:00 +5°C° 0 mm 1 m/s 747 mmHg 90%
    03:00 +5°C° 0 mm 1 m/s 747 mmHg 89%
    04:00 +5°C° 0 mm 1 m/s 747 mmHg 89%
    05:00 +6°C° 0 mm 1 m/s 747 mmHg 88%
    06:00 +7°C° 0 mm 1 m/s 747 mmHg 83%
    07:00 +7°C° 0 mm 0 m/s 747 mmHg 79%
    08:00 +8°C° 0 mm 0 m/s 748 mmHg 75%
    09:00 +10°C° 0 mm 1 m/s 748 mmHg 71%
    10:00 +12°C° 0 mm 2 m/s 748 mmHg 68%
    11:00 +13°C° 0 mm 2 m/s 748 mmHg 64%
    12:00 +13°C° 0 mm 2 m/s 749 mmHg 63%
    13:00 +13°C° 0 mm 2 m/s 749 mmHg 62%
    14:00 +13°C° 0 mm 2 m/s 749 mmHg 61%
    15:00 +13°C° 0 mm 2 m/s 749 mmHg 63%
    16:00 +12°C° 0 mm 2 m/s 749 mmHg 64%
    17:00 +11°C° 0 mm 3 m/s 749 mmHg 66%
    18:00 +9°C° 0 mm 3 m/s 749 mmHg 70%
    19:00 +8°C° 0 mm 2 m/s 749 mmHg 73%
    20:00 +7°C° 0 mm 2 m/s 750 mmHg 77%
    21:00 +6°C° 0 mm 2 m/s 750 mmHg 78%
    22:00 +6°C° 0 mm 2 m/s 750 mmHg 79%
    23:00 +6°C° 0 mm 2 m/s 750 mmHg 80%

    5 Abril, Domingo

    Tempo Temperatura Precipitação Vento Pressão Humidade
    00:00 +4°C° 0 mm 3 m/s 750 mmHg 79%
    01:00 +4°C° 0 mm 3 m/s 750 mmHg 78%
    02:00 +4°C° 0 mm 3 m/s 750 mmHg 78%
    03:00 +4°C° 0 mm 4 m/s 751 mmHg 76%
    04:00 +3°C° 0 mm 5 m/s 751 mmHg 75%
    05:00 +3°C° 0 mm 6 m/s 751 mmHg 74%
    06:00 +4°C° 0 mm 7 m/s 751 mmHg 69%
    07:00 +6°C° 0 mm 8 m/s 751 mmHg 64%
    08:00 +7°C° 0 mm 8 m/s 751 mmHg 59%
    09:00 +8°C° 0 mm 9 m/s 752 mmHg 57%
    10:00 +9°C° 0 mm 10 m/s 752 mmHg 55%
    11:00 +12°C° 0 mm 11 m/s 752 mmHg 53%
    12:00 +12°C° 0 mm 11 m/s 752 mmHg 53%
    13:00 +10°C° 0 mm 12 m/s 751 mmHg 54%
    14:00 +10°C° 0 mm 13 m/s 751 mmHg 54%
    15:00 +10°C° 0 mm 12 m/s 751 mmHg 54%
    16:00 +9°C° 0 mm 12 m/s 751 mmHg 54%
    17:00 +8°C° 0 mm 12 m/s 751 mmHg 54%
    18:00 +7°C° 0 mm 12 m/s 752 mmHg 51%
    19:00 +6°C° 0 mm 11 m/s 752 mmHg 49%
    20:00 +5°C° 0 mm 10 m/s 753 mmHg 47%
    21:00 +5°C° 0 mm 10 m/s 753 mmHg 48%
    22:00 +5°C° 0 mm 10 m/s 753 mmHg 49%
    23:00 +5°C° 0 mm 10 m/s 754 mmHg 50%

    6 Abril, Segunda-feira

    Tempo Temperatura Precipitação Vento Pressão Humidade
    00:00 +3°C° 0 mm 11 m/s 754 mmHg 53%
    01:00 +3°C° 0 mm 11 m/s 754 mmHg 56%
    02:00 +2°C° 0 mm 11 m/s 755 mmHg 59%
    03:00 +2°C° 0 mm 11 m/s 755 mmHg 58%
    04:00 +1°C° 0 mm 10 m/s 756 mmHg 58%
    05:00 0°C° 0 mm 10 m/s 757 mmHg 57%
    06:00 +1°C° 0 mm 11 m/s 757 mmHg 55%
    07:00 +2°C° 0 mm 12 m/s 758 mmHg 53%
    08:00 +2°C° 0 mm 12 m/s 759 mmHg 51%
    09:00 +3°C° 0 mm 12 m/s 759 mmHg 48%
    10:00 +4°C° 0 mm 12 m/s 759 mmHg 46%
    11:00 +5°C° 0 mm 12 m/s 760 mmHg 44%
    12:00 +5°C° 0 mm 12 m/s 760 mmHg 43%
    13:00 +6°C° 0 mm 11 m/s 760 mmHg 42%
    14:00 +6°C° 0 mm 11 m/s 760 mmHg 42%
    15:00 +6°C° 0 mm 11 m/s 760 mmHg 43%
    16:00 +5°C° 0 mm 10 m/s 760 mmHg 44%
    17:00 +5°C° 0 mm 10 m/s 760 mmHg 44%
    18:00 +2°C° 0 mm 9 m/s 761 mmHg 47%
    19:00 +1°C° 0 mm 9 m/s 761 mmHg 49%
    20:00 0°C° 0 mm 8 m/s 761 mmHg 52%
    21:00 0°C° 0 mm 8 m/s 762 mmHg 53%
    22:00 0°C° 0 mm 7 m/s 762 mmHg 54%
    23:00 0°C° 0 mm 7 m/s 762 mmHg 56%
    Mostrar mais